TimeCST,TemperatureF,Dew PointF,Humidity,Sea Level PressureIn,VisibilityMPH,Wind Direction,Wind SpeedMPH,Gust SpeedMPH,PrecipitationIn,Events,Conditions,WindDirDegrees,DateUTC
12:15 AM,37.8,30.9,76,30.03,10.0,South,12.7,-,N/A,,Mostly Cloudy,190,2013-01-09 06:15:00
12:35 AM,38.1,30.9,75,30.03,10.0,SSW,13.8,-,N/A,,Scattered Clouds,200,2013-01-09 06:35:00
12:55 AM,39.6,30.9,71,30.04,10.0,SW,13.8,-,N/A,,Clear,230,2013-01-09 06:55:00
1:15 AM,41.0,30.2,65,30.04,10.0,WSW,17.3,27.6,N/A,,Clear,240,2013-01-09 07:15:00
1:35 AM,41.0,30.4,66,30.05,10.0,WSW,18.4,27.6,N/A,,Clear,250,2013-01-09 07:35:00
1:55 AM,40.8,30.7,67,30.06,10.0,WSW,19.6,-,N/A,,Clear,250,2013-01-09 07:55:00
2:15 AM,40.3,30.7,69,30.08,10.0,WSW,19.6,-,N/A,,Clear,250,2013-01-09 08:15:00
2:35 AM,40.1,31.1,70,30.08,10.0,West,17.3,26.5,N/A,,Clear,260,2013-01-09 08:35:00
2:55 AM,40.1,31.1,70,30.08,10.0,West,20.7,25.3,N/A,,Clear,260,2013-01-09 08:55:00
3:15 AM,39.6,31.5,73,30.09,10.0,West,19.6,24.2,N/A,,Clear,260,2013-01-09 09:15:00
3:35 AM,39.6,31.6,73,30.10,10.0,West,17.3,-,N/A,,Clear,260,2013-01-09 09:35:00
3:55 AM,38.5,31.3,75,30.11,10.0,West,17.3,23.0,N/A,,Clear,260,2013-01-09 09:55:00
4:15 AM,37.8,31.5,78,30.12,10.0,West,16.1,-,N/A,,Clear,260,2013-01-09 10:15:00
4:35 AM,37.4,31.3,79,30.12,10.0,West,16.1,-,N/A,,Clear,260,2013-01-09 10:35:00
4:55 AM,36.9,31.1,80,30.13,10.0,West,16.1,23.0,N/A,,Clear,260,2013-01-09 10:55:00
5:15 AM,36.7,31.1,80,30.15,10.0,West,17.3,-,N/A,,Clear,260,2013-01-09 11:15:00
5:35 AM,35.6,30.9,83,30.16,10.0,West,15.0,-,N/A,,Clear,260,2013-01-09 11:35:00
5:55 AM,35.1,30.7,84,30.17,10.0,West,15.0,-,N/A,,Clear,270,2013-01-09 11:55:00
6:15 AM,34.5,30.6,85,30.19,10.0,West,13.8,-,N/A,,Clear,270,2013-01-09 12:15:00
6:35 AM,34.3,30.4,85,30.20,10.0,West,13.8,-,N/A,,Clear,270,2013-01-09 12:35:00
6:55 AM,34.3,30.2,85,30.21,10.0,West,12.7,-,N/A,,Clear,270,2013-01-09 12:55:00
7:15 AM,34.3,30.2,85,30.22,10.0,West,10.4,-,N/A,,Clear,260,2013-01-09 13:15:00
7:35 AM,34.3,30.4,85,30.23,10.0,WSW,9.2,-,N/A,,Clear,250,2013-01-09 13:35:00
7:55 AM,33.8,30.2,87,30.23,10.0,WSW,8.1,-,N/A,,Clear,250,2013-01-09 13:55:00
8:15 AM,35.2,30.9,84,30.25,10.0,WSW,9.2,-,N/A,,Clear,250,2013-01-09 14:15:00
8:35 AM,36.7,31.3,81,30.26,10.0,West,9.2,-,N/A,,Clear,260,2013-01-09 14:35:00
8:55 AM,38.1,31.6,77,30.28,10.0,West,9.2,-,N/A,,Clear,260,2013-01-09 14:55:00
9:15 AM,40.1,32.0,73,30.28,10.0,WSW,12.7,-,N/A,,Clear,250,2013-01-09 15:15:00
9:35 AM,41.0,32.0,70,30.30,10.0,WSW,9.2,-,N/A,,Clear,250,2013-01-09 15:35:00
9:55 AM,42.3,32.0,67,30.31,10.0,WSW,10.4,-,N/A,,Clear,250,2013-01-09 15:55:00
10:15 AM,43.7,32.2,64,30.31,10.0,West,12.7,19.6,N/A,,Clear,270,2013-01-09 16:15:00
10:55 AM,46.4,33.8,62,30.32,10.0,West,13.8,20.7,N/A,,Clear,280,2013-01-09 16:55:00
11:15 AM,46.4,33.8,62,30.32,10.0,West,17.3,24.2,N/A,,Clear,280,2013-01-09 17:15:00
11:35 AM,46.4,32.4,58,30.32,10.0,West,13.8,25.3,N/A,,Clear,280,2013-01-09 17:35:00
11:55 AM,48.2,32.0,54,30.33,10.0,West,15.0,24.2,N/A,,Clear,280,2013-01-09 17:55:00
12:15 PM,47.5,30.2,51,30.32,10.0,WNW,17.3,21.9,N/A,,Clear,290,2013-01-09 18:15:00
12:35 PM,48.0,30.9,52,30.33,10.0,WNW,15.0,23.0,N/A,,Clear,290,2013-01-09 18:35:00
12:55 PM,47.8,30.6,51,30.33,10.0,WNW,18.4,26.5,N/A,,Clear,290,2013-01-09 18:55:00
1:15 PM,47.7,30.6,52,30.34,10.0,West,15.0,19.6,N/A,,Clear,280,2013-01-09 19:15:00
1:35 PM,48.2,31.1,52,30.35,10.0,West,15.0,21.9,N/A,,Clear,280,2013-01-09 19:35:00
1:55 PM,48.4,31.3,52,30.36,10.0,WNW,17.3,20.7,N/A,,Clear,290,2013-01-09 19:55:00
2:15 PM,47.8,30.2,50,30.36,10.0,WNW,17.3,21.9,N/A,,Clear,290,2013-01-09 20:15:00
2:35 PM,47.3,29.5,50,30.36,10.0,WNW,19.6,25.3,N/A,,Clear,290,2013-01-09 20:35:00
2:55 PM,46.4,30.2,53,30.38,10.0,WNW,17.3,26.5,N/A,,Clear,290,2013-01-09 20:55:00
3:15 PM,45.9,27.5,49,30.38,10.0,WNW,13.8,23.0,N/A,,Clear,290,2013-01-09 21:15:00
3:35 PM,45.1,28.6,52,30.40,10.0,WNW,11.5,20.7,N/A,,Clear,290,2013-01-09 21:35:00
3:55 PM,44.6,29.5,55,30.41,10.0,WNW,11.5,-,N/A,,Clear,290,2013-01-09 21:55:00
4:15 PM,42.4,28.9,59,30.42,10.0,WNW,9.2,-,N/A,,Clear,290,2013-01-09 22:15:00
4:35 PM,41.5,26.6,55,30.42,10.0,WNW,10.4,17.3,N/A,,Clear,290,2013-01-09 22:35:00
4:55 PM,39.4,26.8,61,30.41,10.0,NW,15.0,-,N/A,,Clear,320,2013-01-09 22:55:00
5:15 PM,37.4,26.6,65,30.43,10.0,NW,5.8,-,N/A,,Clear,320,2013-01-09 23:15:00
5:35 PM,34.7,25.9,70,30.42,10.0,NNW,10.4,-,N/A,,Clear,340,2013-01-09 23:35:00
5:55 PM,36.0,26.6,69,30.43,10.0,NNW,5.8,-,N/A,,Clear,330,2013-01-09 23:55:00
6:15 PM,32.2,25.9,78,30.43,10.0,WNW,3.5,-,N/A,,Clear,300,2013-01-10 00:15:00
6:35 PM,32.2,24.6,74,30.44,10.0,West,4.6,-,N/A,,Clear,270,2013-01-10 00:35:00
6:55 PM,33.3,25.9,74,30.45,10.0,WSW,5.8,-,N/A,,Clear,240,2013-01-10 00:55:00
7:15 PM,32.7,25.5,75,30.46,10.0,Calm,Calm,-,N/A,,Clear,0,2013-01-10 01:15:00
7:35 PM,32.2,26.1,78,30.46,10.0,SW,3.5,-,N/A,,Clear,230,2013-01-10 01:35:00
7:55 PM,33.3,26.1,75,30.47,10.0,SW,4.6,-,N/A,,Clear,220,2013-01-10 01:55:00
8:15 PM,32.9,25.9,75,30.47,10.0,SSW,5.8,-,N/A,,Clear,210,2013-01-10 02:15:00
8:35 PM,32.7,25.5,75,30.46,10.0,WSW,3.5,-,N/A,,Clear,240,2013-01-10 02:35:00
8:55 PM,32.7,24.8,73,30.46,10.0,SSW,3.5,-,N/A,,Clear,210,2013-01-10 02:55:00
9:15 PM,32.2,25.2,75,30.47,10.0,SW,3.5,-,N/A,,Clear,220,2013-01-10 03:15:00
9:35 PM,29.8,23.5,77,30.46,10.0,Calm,Calm,-,N/A,,Clear,0,2013-01-10 03:35:00
9:55 PM,29.8,23.9,79,30.47,10.0,WSW,5.8,-,N/A,,Clear,250,2013-01-10 03:55:00
10:15 PM,28.9,23.9,81,30.47,10.0,Calm,Calm,-,N/A,,Clear,0,2013-01-10 04:15:00
10:35 PM,30.4,24.6,79,30.49,10.0,Calm,Calm,-,N/A,,Clear,0,2013-01-10 04:35:00
10:55 PM,28.9,23.7,81,30.49,10.0,Calm,Calm,-,N/A,,Clear,0,2013-01-10 04:55:00
11:15 PM,30.7,25.2,80,30.49,10.0,Calm,Calm,-,N/A,,Clear,0,2013-01-10 05:15:00
11:35 PM,31.6,25.3,78,30.50,10.0,Calm,Calm,-,N/A,,Clear,0,2013-01-10 05:35:00
11:55 PM,30.9,24.8,78,30.49,10.0,Calm,Calm,-,N/A,,Clear,0,2013-01-10 05:55:00